Regional Weather Roundup
Issued by NWS

Home | Current Version | Previous Version | Text Only | Print | Product List | Glossary On
Versions: 1 2 3 4 5 6 7 8 9 10 11 12 13 14 15 16 17 18 19 20 21 22 23 24 25 26 27 28 29 30 31 32 33 34 35 36 37 38 39 40 41 42 43 44 45 46 47 48 49 50
000
ASUS43 KBIS 230610
RWRND

NORTH DAKOTA REGIONAL WEATHER ROUNDUP
NATIONAL WEATHER SERVICE BISMARCK ND
1200 AM CST MON JAN 23 2017

NOTE: "FAIR" INDICATES FEW OR NO CLOUDS BELOW 12,000 FEET WITH NO
SIGNIFICANT WEATHER AND/OR OBSTRUCTIONS TO VISIBILITY.


NDZ001>003-009>011-017-230700-
NORTHWEST NORTH DAKOTA

CITY           SKY/WX    TMP DP  RH WIND       PRES   REMARKS
WILLISTON      CLOUDY    27  23  85 SW5       29.80S
6HR MIN TEMP:  27; 6HR MAX TEMP:  30;

MINOT          CLOUDY    30  25  81 W10       29.77S
MINOT AFB      CLOUDY    29  25  86 W10       29.76S WCI  19
$$

NDZ018>021-031>035-040>046-230700-
SOUTHWEST NORTH DAKOTA

CITY           SKY/WX    TMP DP  RH WIND       PRES   REMARKS
BISMARCK       CLOUDY    31  24  75 W8        29.83S
6HR MIN TEMP:  31; 6HR MAX TEMP:  33;

DICKINSON      CLOUDY    25  20  81 W8        29.78R WCI  16
GARRISON         N/A     28  22  78 NW8       29.78S WCI  20
6HR MIN TEMP:  28; 6HR MAX TEMP:  31;

HETTINGER ARPT CLOUDY    24  22  91 NW6       29.81F WCI  17
$$

NDZ004>008-012>016-024-026-027-054-230700-
NORTHEAST NORTH DAKOTA

CITY           SKY/WX    TMP DP  RH WIND       PRES   REMARKS
GRAND FORKS    CLOUDY    33  28  81 W6        29.77S
GRND FRKS AFB  CLOUDY    32  28  84 NW7       29.77S
DEVILS LAKE    CLOUDY    30  27  88 W15       29.76S WCI  19
$$

NDZ022-023-025-028>030-036>039-047>053-230700-
SOUTHEAST NORTH DAKOTA

CITY           SKY/WX    TMP DP  RH WIND       PRES   REMARKS
FARGO          CLOUDY    34  29  82 W6        29.79S
6HR MIN TEMP:  34; 6HR MAX TEMP:  35;

JAMESTOWN      CLOUDY    32  27  81 NW12      29.78F
$$





USA.gov is the U.S. government's official web portal to all federal, state and local government web resources and services.